Starlink 3619

operational
NORAD ID: 51787 Int'l Des: 2022-017 Owner: SPXS Country: US Constellation: starlink
LEOCIRCULAR

关于 Starlink 3619

正在加载描述...

实时位置

正在加载3D地球...

即将过境

高度历史

Altitude vs Time

uPlot chart will show altitude changes over time

两行轨道根数

1 51787U 22017V 25353.98464868 .00002272 00000-0 16081-3 0 9993
2 51787 53.2199 346.9327 0001431 90.2336 269.8820 15.08839051210249
Epoch: Dec 19, 2025 • Age: 22 hours

当前状态

高度 554.0 km
速度 7.58 km/s
星下点 -40.87°S, 153.2°E
发射日期 Feb 25, 2022
运行时间 3.8 years
类型 internet

技术详情

分类 Payload
质量 297.00 kg
干质量 275.00 kg
总质量 297.00 kg
长度 0.20 m
直径 2.80 m
跨度 9.00 m
形状 Box + pan
制造商 SPXS
平台类型 Starlink
阶段状态 In Orbit
所有者/国家 SPXS/US

大型星座

Loading constellations...